Weather History for PAGS - February, 2012

Change the Weather History Date:

Thursday, February 16, 2012

  Actual Average Record
Temperature  
Mean Temperature 38 °F -  
Max Temperature 41 °F 35 °F 44 °F (1998)
Min Temperature 35 °F 21 °F -9 °F (1954)
Degree Days  
Heating Degree Days 27    
Moisture  
Dew Point 32 °F    
Average Humidity 77    
Maximum Humidity 87    
Minimum Humidity 65    
Precipitation  
Precipitation 0.00 in - - ()
Sea Level Pressure  
Sea Level Pressure 29.96 in    
Wind  
Wind Speed 9 mph (SE)    
Max Wind Speed 17 mph    
Max Gust Speed 22 mph    
Visibility 10 miles    
Events      
Averages and records for this station are not official NWS values.
T = Trace of Precipitation, MM = Missing Value Source: NWS Daily Summary

Daily Weather History Graph

Daily Weather History Graph

Search for Another Location

Airport or City:

Trip Planner

Search our weather history database for the weather conditions in past years. The results will help you decide how hot, cold, wet, or windy it might be!

Date:

Astronomy

Feb. 16, 2012 Rise Set
Actual Time 7:33 AM AKST 5:01 PM AKST
Civil Twilight 6:52 AM AKST 5:42 PM AKST
Nautical Twilight 6:05 AM AKST 6:29 PM AKST
Astronomical Twilight 5:19 AM AKST 7:15 PM AKST
Moon 4:28 AM AKST (2/16) 11:08 AM AKST (2/16)
Length of Visible Light 10h 50m
Length of Day
9h 27m
Waning Crescent, 27% of the Moon is Illuminated
Feb 16
Waning Crescent
Feb 21
New
Feb 29
First Quarter
Mar 8
Full
Mar 14
Last Quarter

Hourly Weather History & Observations

Time (AKST) Temp. Windchill Dew Point Humidity Pressure Visibility Wind Dir Wind Speed Gust Speed Precip Events Conditions
12:16 AM - - - N/A% 29.80 in 10.0 mi SSE 17.3 mph - N/A   Overcast
12:36 AM - - - N/A% 29.81 in 10.0 mi SSE 13.8 mph - N/A   Overcast
12:56 AM - - - N/A% 29.82 in 10.0 mi SSE 11.5 mph 21.9 mph N/A   Overcast
1:16 AM - - - N/A% 29.83 in 10.0 mi SSE 11.5 mph - N/A   Overcast
1:36 AM - - - N/A% 29.83 in 10.0 mi SE 13.8 mph - N/A   Overcast
1:56 AM - - - N/A% 29.84 in 10.0 mi SSE 9.2 mph - N/A   Overcast
2:16 AM - - - N/A% 29.85 in 10.0 mi SE 8.1 mph - N/A   Overcast
2:36 AM - - - N/A% 29.85 in 10.0 mi SE 12.7 mph - N/A   Overcast
2:56 AM - - - N/A% 29.87 in 10.0 mi ESE 12.7 mph 16.1 mph N/A   Overcast
3:16 AM - - - N/A% 29.88 in 10.0 mi SE 8.1 mph - N/A   Overcast
3:36 AM - - - N/A% 29.89 in 10.0 mi SSE 9.2 mph - N/A   Overcast
3:56 AM - - - N/A% 29.89 in 10.0 mi SE 6.9 mph - N/A   Overcast
4:16 AM - - - N/A% 29.90 in 10.0 mi SE 4.6 mph - N/A   Overcast
4:36 AM - - - N/A% 29.90 in 10.0 mi ESE 5.8 mph - N/A   Overcast
4:56 AM - - - N/A% 29.91 in 10.0 mi ESE 9.2 mph - N/A   Overcast
5:16 AM - - - N/A% 29.92 in 10.0 mi SE 8.1 mph - N/A   Overcast
5:36 AM - - - N/A% 29.92 in 10.0 mi SSE 8.1 mph - N/A   Overcast
5:56 AM - - - N/A% 29.92 in 10.0 mi SE 6.9 mph - N/A   Overcast
6:16 AM - - - N/A% 29.93 in 10.0 mi ESE 9.2 mph - N/A   Overcast
6:36 AM - - - N/A% 29.93 in 10.0 mi ESE 6.9 mph - N/A   Overcast
6:56 AM - - - N/A% 29.94 in 10.0 mi SE 8.1 mph - N/A   Overcast
7:16 AM - - - N/A% 29.95 in 10.0 mi SSE 4.6 mph - N/A   Overcast
7:36 AM - - - N/A% 29.96 in 10.0 mi SE 8.1 mph - N/A   Overcast
7:56 AM - - - N/A% 29.98 in 10.0 mi ESE 8.1 mph - N/A   Overcast
8:16 AM - - - N/A% 29.98 in 10.0 mi ESE 8.1 mph - N/A   Overcast
8:36 AM - - - N/A% 29.99 in 10.0 mi ESE 8.1 mph - N/A   Overcast
8:56 AM - - - N/A% 30.00 in 10.0 mi SE 8.1 mph - N/A   Overcast
9:16 AM - - - N/A% 30.00 in 10.0 mi ESE 8.1 mph - N/A   Overcast
9:36 AM - - - N/A% 30.01 in 10.0 mi SE 8.1 mph - N/A   Overcast
9:56 AM - - - N/A% 30.01 in 10.0 mi ESE 10.4 mph - N/A   Overcast
10:16 AM - - - N/A% 30.02 in 10.0 mi ESE 6.9 mph - N/A   Overcast
10:36 AM 39.2 °F 33.6 °F 33.8 °F 81% 30.03 in 10.0 mi SE 8.1 mph - N/A   Overcast
10:56 AM 39.2 °F 35.0 °F 32.0 °F 75% 30.03 in 10.0 mi SE 5.8 mph - N/A   Overcast
11:16 AM 39.2 °F 35.9 °F 33.8 °F 81% 30.04 in 10.0 mi SSE 4.6 mph - N/A   Overcast
11:36 AM 39.2 °F 34.2 °F 32.0 °F 75% 30.04 in 10.0 mi SE 6.9 mph - N/A   Overcast
11:56 AM 39.2 °F 35.9 °F 32.0 °F 75% 30.03 in 10.0 mi SE 4.6 mph - N/A   Overcast
12:16 PM 39.2 °F 35.9 °F 32.0 °F 75% 30.04 in 10.0 mi SE 4.6 mph - N/A   Mostly Cloudy
12:36 PM 39.2 °F 35.9 °F 33.8 °F 81% 30.04 in 10.0 mi SE 4.6 mph - N/A   Mostly Cloudy
12:56 PM 39.2 °F 35.9 °F 32.0 °F 75% 30.05 in 10.0 mi SE 4.6 mph - N/A   Overcast
1:16 PM 41.0 °F 39.0 °F 32.0 °F 70% 30.05 in 10.0 mi SE 3.5 mph - N/A   Overcast
1:36 PM 41.0 °F 35.8 °F 32.0 °F 70% 30.04 in 10.0 mi SE 8.1 mph - N/A   Overcast
1:56 PM 41.0 °F 34.7 °F 30.2 °F 65% 30.02 in 10.0 mi ESE 10.4 mph - N/A   Mostly Cloudy
2:16 PM 39.2 °F 33.0 °F 30.2 °F 70% 30.03 in 10.0 mi SE 9.2 mph - N/A   Scattered Clouds
2:36 PM 39.2 °F 35.0 °F 32.0 °F 75% 30.03 in 10.0 mi SSE 5.8 mph - N/A   Mostly Cloudy
2:56 PM 39.2 °F 34.2 °F 33.8 °F 81% 30.03 in 10.0 mi SE 6.9 mph - N/A   Overcast
3:16 PM 39.2 °F 37.0 °F 33.8 °F 81% 30.02 in 10.0 mi SE 3.5 mph - N/A   Overcast
3:36 PM 39.2 °F 35.9 °F 33.8 °F 81% 30.01 in 10.0 mi SE 4.6 mph - N/A   Overcast
3:56 PM 39.2 °F 35.9 °F 33.8 °F 81% 30.01 in 10.0 mi South 4.6 mph - N/A   Overcast
4:16 PM 39.2 °F - 33.8 °F 81% 30.01 in 10.0 mi Calm Calm - N/A   Overcast
4:36 PM 39.2 °F - 33.8 °F 81% 30.00 in 10.0 mi Calm Calm - N/A   Overcast
4:56 PM 39.2 °F - 32.0 °F 75% 29.99 in 10.0 mi Calm Calm - N/A   Overcast
5:16 PM 37.4 °F - 32.0 °F 81% 29.99 in 10.0 mi Calm Calm - N/A   Overcast
5:36 PM 35.6 °F 32.8 °F 32.0 °F 87% 29.98 in 10.0 mi North 3.5 mph - N/A   Overcast
5:56 PM 35.6 °F - 30.2 °F 81% 29.97 in 10.0 mi Calm Calm - N/A   Mostly Cloudy
6:16 PM 37.4 °F - 32.0 °F 81% 29.97 in 10.0 mi Calm Calm - N/A   Mostly Cloudy
6:36 PM 35.6 °F - 32.0 °F 87% 29.97 in 10.0 mi Calm Calm - N/A   Mostly Cloudy
6:56 PM 35.6 °F - 32.0 °F 87% 29.96 in 10.0 mi Calm Calm - N/A   Mostly Cloudy
7:16 PM 35.6 °F - 30.2 °F 81% 29.95 in 10.0 mi Calm Calm - N/A   Mostly Cloudy
7:36 PM 33.8 °F - 30.2 °F 87% 29.95 in 10.0 mi Calm Calm - N/A   Mostly Cloudy
7:56 PM 35.6 °F 30.7 °F 30.2 °F 81% 29.95 in 10.0 mi North 5.8 mph - N/A   Overcast
8:16 PM 35.6 °F 32.8 °F 30.2 °F 81% 29.95 in 10.0 mi NNW 3.5 mph - N/A   Overcast
8:36 PM 33.8 °F 29.6 °F 30.2 °F 87% 29.95 in 10.0 mi NNW 4.6 mph - N/A   Overcast
8:56 PM 35.6 °F 30.7 °F 32.0 °F 87% 29.95 in 7.0 mi NNW 5.8 mph - N/A   Overcast
9:16 PM 35.6 °F 32.8 °F 32.0 °F 87% 29.94 in 10.0 mi North 3.5 mph - N/A   Overcast
9:36 PM 35.6 °F 32.8 °F 32.0 °F 87% 29.94 in 10.0 mi North 3.5 mph - N/A   Overcast
9:56 PM 35.6 °F - 32.0 °F 87% 29.94 in 10.0 mi Calm Calm - N/A   Overcast
10:16 PM 35.6 °F - 32.0 °F 87% 29.94 in 10.0 mi Calm Calm - N/A   Overcast
10:36 PM 33.8 °F - 32.0 °F 93% 29.93 in 10.0 mi Calm Calm - N/A   Overcast
10:56 PM 33.8 °F 29.6 °F 32.0 °F 93% 29.93 in 10.0 mi NNW 4.6 mph - N/A   Mostly Cloudy
11:16 PM 33.8 °F 29.6 °F 30.2 °F 87% 29.92 in 10.0 mi NNW 4.6 mph - N/A   Partly Cloudy
11:36 PM - - - N/A% 29.91 in 10.0 mi NNW 5.8 mph - N/A   Mostly Cloudy
11:56 PM - - - N/A% 29.91 in 10.0 mi NNW 6.9 mph - N/A   Overcast